TimeCDT,TemperatureF,Dew PointF,Humidity,Sea Level PressureIn,VisibilityMPH,Wind Direction,Wind SpeedMPH,Gust SpeedMPH,PrecipitationIn,Events,Conditions,WindDirDegrees,DateUTC
12:53 AM,46.0,39.9,79,30.01,10.0,NW,9.2,-,N/A,,Mostly Cloudy,320,2012-09-18 05:53:00
1:53 AM,44.1,39.0,82,30.02,10.0,WNW,9.2,-,N/A,,Scattered Clouds,300,2012-09-18 06:53:00
2:53 AM,42.1,37.9,85,30.02,10.0,NW,9.2,-,N/A,,Partly Cloudy,310,2012-09-18 07:53:00
3:53 AM,41.0,37.0,86,30.02,10.0,NW,8.1,-,N/A,,Partly Cloudy,310,2012-09-18 08:53:00
4:53 AM,39.0,36.0,89,30.02,10.0,NW,10.4,-,N/A,,Clear,310,2012-09-18 09:53:00
5:53 AM,37.0,34.0,89,30.03,10.0,NW,6.9,-,N/A,,Clear,310,2012-09-18 10:53:00
6:53 AM,37.0,34.0,89,30.05,10.0,WNW,4.6,-,N/A,,Clear,300,2012-09-18 11:53:00
7:53 AM,39.0,36.0,89,30.06,10.0,NW,8.1,-,N/A,,Clear,310,2012-09-18 12:53:00
8:53 AM,44.1,37.0,76,30.06,10.0,NW,6.9,-,N/A,,Clear,320,2012-09-18 13:53:00
9:53 AM,46.0,39.0,76,30.07,10.0,NNW,9.2,-,N/A,,Clear,330,2012-09-18 14:53:00
10:53 AM,52.0,39.0,61,30.06,10.0,WNW,10.4,-,N/A,,Clear,290,2012-09-18 15:53:00
11:53 AM,55.9,35.1,45,30.06,10.0,NW,12.7,18.4,N/A,,Clear,310,2012-09-18 16:53:00
12:53 PM,57.9,33.1,39,30.06,10.0,NNW,13.8,17.3,N/A,,Partly Cloudy,330,2012-09-18 17:53:00
1:53 PM,60.1,32.0,35,30.04,10.0,North,12.7,18.4,N/A,,Clear,350,2012-09-18 18:53:00
2:53 PM,59.0,30.0,33,30.02,10.0,WNW,11.5,17.3,N/A,,Clear,290,2012-09-18 19:53:00
3:53 PM,60.1,28.0,30,30.01,10.0,North,8.1,17.3,N/A,,Clear,360,2012-09-18 20:53:00
4:53 PM,59.0,27.0,29,30.01,10.0,NW,10.4,19.6,N/A,,Clear,320,2012-09-18 21:53:00
5:53 PM,59.0,28.0,31,30.01,10.0,NNW,4.6,-,N/A,,Clear,340,2012-09-18 22:53:00
6:53 PM,57.0,30.0,36,30.01,10.0,Calm,Calm,-,N/A,,Partly Cloudy,0,2012-09-18 23:53:00
7:53 PM,54.0,30.9,41,30.00,10.0,ESE,3.5,-,N/A,,Overcast,110,2012-09-19 00:53:00
8:53 PM,53.1,35.1,50,30.01,9.0,Calm,Calm,-,N/A,,Overcast,0,2012-09-19 01:53:00
9:53 PM,53.1,34.0,48,30.00,10.0,SE,5.8,-,N/A,,Overcast,140,2012-09-19 02:53:00
10:53 PM,53.1,32.0,45,29.97,10.0,SSE,9.2,-,N/A,,Overcast,160,2012-09-19 03:53:00
11:53 PM,46.9,32.0,56,29.96,10.0,SSE,8.1,-,N/A,,Clear,160,2012-09-19 04:53:00